Wynyard / W.B. Needham Field

Jump to: basic info | weather | frequencies | runways | comments

Related pages: nearby airports | nearby navaids | notams | map

Basic information (top)

Codes: CYYO
Location: lon 51.809888, lat -104.169788, elev 1,740 ft / 530 m msl
Status: small_airport
Scheduled airline service: no
Links: Wikipedia Mobile

Weather (top)

Current conditions for Yorkton Municipal Airport 72nm (133km) ESE (rec'd 2014/12/21 12:36Z):

CYQV 211236Z AUTO 16005KT 1 1/4SM BR OVC002 M02/M02 A2953 RMK SLP026

Airport forecast for Yorkton Municipal Airport 72nm (133km) ESE (rec'd 2014/12/21 12:42Z):

TAF CYQV 211140Z 2112/2124 16005KT 1SM BR OVC004 
      TEMPO 2112/2119 5SM BR 
     FM211900 11008KT P6SM SCT006 SCT070 
      TEMPO 2119/2121 BKN006 
      RMK FCST BASED ON AUTO OBS. NXT FCST BY 211800Z

Frequencies (top)

Verify before use: may be inaccurate or out of date.

ATF: 123.2 MHz (ATF)

Runways (top)

09/27: 3,000 x 75 ft (914 x 23 m) — paved — lighted

Latest comments (top)

Wynyard Airport renamed W.B. Needham Field: The Wynyard Airport was renamed "W.B. ... [read]

More... (top)

See also NOTAMs and nearby airports and navaids, or visit the Wynyard / W.B. Needham Field page at the main OurAirports website..